Погода в Ангтхонге

Таиланд     14°36′00″N   100°27′27″E
темп.,
°C
ветер,
м/с
пор.,
м/с
влажн.,
%
обл.,
%
осадки,
мм/ч
давл.,
гПа
погр.,
м
20 июня, вс
вс2001:00+26юз497998 4.4 1008213
04:00+25юз258122 0.0 1007112
07:00+26юз257630 0.0 1008194
10:00+33з4648100 0.0 10091202
13:00+36з563953 0.0 10062036
16:00+36з763823 0.0 10042152
19:00+31з6105236 0.0 1005430
22:00+28зюз5116334 0.0 1007405
21 июня, пн
пн2101:00+28юз5106999 0.1 1007366
04:00+27зюз497212 0.0 1006295
07:00+27зюз487146 0.0 1008387
10:00+33з55485 0.0 10081231
13:00+36з56395 0.0 10062114
16:00+36з783634 0.0 10032044
19:00+32з51049100 0.0 1004391
22:00+29зюз51160100 0.1 1007481
22 июня, вт
вт2201:00+28юз5116396 0.1 1007489
04:00+26юз4107038 0.0 1006388
07:00+27юз497290 0.0 1008435
10:00+33з574929 0.0 10081288
13:00+36з563832 0.0 10062283
16:00+35з464294 0.1 1003713
19:00+30ю61057100 0.1 1005458
22:00+29ююз4961100 0.0 1008357
23 июня, ср
ср2301:00+28юз4116381 0.0 1007432
04:00+26юз41071100 0.0 1007363
07:00+27юз4972100 0.0 1009416
10:00+31зюз5752100 0.0 10091219
13:00+35зюз6743100 0.0 10061951
16:00+34юз5847100 0.2 1004584
19:00+29ююз51163100 0.3 1006390
22:00+28юз51064100 0.1 1008509
24 июня, чт
чт2401:00+27юз51067100 0.1 1007491
04:00+26юз4970100 0.0 1006383
07:00+27ююз4872100 0.0 1007364
10:00+31зюз6756100 0.0 10081039
13:00+32з5651100 0.0 10061453
16:00+32юз895591 0.1 1004987
19:00+29зюз5106499 0.7 1005560
22:00+26юз41077100 0.0 1007537